This is the latest recevied weather packets stored in our database for station/object IW2OBX-10. If no packets are shown the sender has not sent any weather packets the latest 10 day(s).
| Time | Temp. | Humidity | Pressure | Rain* | Wind** | Luminosity | Snow |
|---|---|---|---|---|---|---|---|
| 1778220590 | 22.22° C | 50% | 1015.9 hPa | - | - | - | - |
| 1778219689 | 22.22° C | 49% | 1015.9 hPa | - | - | - | - |
| 1778218788 | 21.11° C | 51% | 1015.9 hPa | - | - | - | - |
| 1778217887 | 20.56° C | 58% | 1015.8 hPa | - | - | - | - |
| 1778216986 | 17.22° C | 68% | 1015.9 hPa | - | - | - | - |
| 1778216086 | 15° C | 70% | 1015.7 hPa | - | - | - | - |
| 1778215185 | 14.44° C | 72% | 1015.6 hPa | - | - | - | - |
| 1778214284 | 14.44° C | 72% | 1015.6 hPa | - | - | - | - |
| 1778213383 | 14.44° C | 72% | 1015.6 hPa | - | - | - | - |
| 1778212482 | 15° C | 69% | 1015.6 hPa | - | - | - | - |
| 1778211582 | 15° C | 70% | 1015.6 hPa | - | - | - | - |
| 1778210681 | 14.44° C | 72% | 1015.7 hPa | - | - | - | - |
| 1778209780 | 15° C | 70% | 1015.6 hPa | - | - | - | - |
| 1778208879 | 15° C | 69% | 1015.5 hPa | - | - | - | - |
| 1778207978 | 15.56° C | 69% | 1015.6 hPa | - | - | - | - |
| 1778207078 | 15° C | 71% | 1015.7 hPa | - | - | - | - |
| 1778206177 | 15° C | 72% | 1015.6 hPa | - | - | - | - |
| 1778205276 | 15.56° C | 69% | 1015.5 hPa | - | - | - | - |
| 1778204375 | 15° C | 70% | 1015.4 hPa | - | - | - | - |
| 1778203474 | 15° C | 71% | 1015.2 hPa | - | - | - | - |
| 1778202574 | 15.56° C | 69% | 1015.2 hPa | - | - | - | - |
| 1778201673 | 15° C | 70% | 1015.2 hPa | - | - | - | - |
| 1778200772 | 15° C | 69% | 1015.4 hPa | - | - | - | - |
| 1778199871 | 15.56° C | 67% | 1015.3 hPa | - | - | - | - |
| 1778198970 | 15.56° C | 67% | 1015.3 hPa | - | - | - | - |
* Rain since midnight (hover to see other rain measurements)
** Current wind speed in m/s (hover to see current wind gust speed)